Regional Weather Roundup
Issued by NWS Glasgow, MT

Home | Current Version | Previous Version | Text Only | Print | Product List | Glossary On
Versions: 1 2 3 4 5 6 7 8 9 10 11 12 13 14 15 16 17 18 19 20 21 22 23 24 25 26 27
000
ASUS45 KGGW 020315
RWRGGW
HOURLY REGIONAL WEATHER ROUNDUP FOR NORTHEAST MONTANA
NATIONAL WEATHER SERVICE GLASGOW MONTANA
900 PM MDT SUN MAY 01 2016

NOTE: "FAIR" INDICATES FEW OR NO CLOUDS BELOW 12,000 FEET WITH NO
SIGNIFICANT WEATHER AND/OR OBSTRUCTIONS TO VISISBILITY.

NORTHEAST MONTANA


CITY           SKY/WX    TMP DP  RH WIND       PRES   REMARKS
GLASGOW        MOCLDY    58  33  39 W5        30.17S
PLENTYWOOD       N/A     58  28  32 NW6G16      N/A
WOLF POINT     CLOUDY    56  35  45 W6        30.15S
JORDAN           N/A     50  38  63 CALM      30.19S
SIDNEY         CLOUDY    54  30  40 W9        30.15S
GLENDIVE       CLEAR     46  34  61 NW8       30.20S
MALTA            N/A     53  37  54 S3          N/A
SCOBEY           N/A     56  31  38 W8        30.12R
OPHEIM           N/A     50  32  50 CALM      30.01S

FORT PECK REPORTS


CITY           SKY/WX    TMP DP  RH WIND       PRES   REMARKS
FORT PECK        N/A     53  38  56 S8          N/A
THE PINES        N/A     58  28  32 SW3         N/A

SOUTHEAST MONTANA


CITY           SKY/WX    TMP DP  RH WIND       PRES   REMARKS
BILLINGS       PTCLDY    54  31  41 NE3       30.21S
MILES CITY     CLEAR     52  35  52 SW7       30.19F
BAKER          CLEAR     48  33  56 W9        30.20S
LIVINGSTON     CLEAR     48  29  47 E9        30.19S

CENTRAL MONTANA


CITY           SKY/WX    TMP DP  RH WIND       PRES   REMARKS
HAVRE          PTCLDY    59  31  34 CALM      30.16F
LEWISTOWN      CLEAR     50  33  52 E6        30.20S
GREAT FALLS    CLEAR     50  34  54 NE7       30.18S
CUT BANK       CLEAR     54  33  45 SE5       30.18S
HELENA         CLEAR     54  35  48 NW6       30.15R
BUTTE          CLEAR     51  25  36 SW6       30.19R
BOZEMAN        CLEAR     48  30  49 SE10      30.17R

WESTERN MONTANA


CITY           SKY/WX    TMP DP  RH WIND       PRES   REMARKS
MISSOULA       CLEAR     61  38  42 N12       30.10S
KALISPELL      NOT AVBL

NORTH DAKOTA


CITY           SKY/WX    TMP DP  RH WIND       PRES   REMARKS
WILLISTON      PTCLDY    55  31  39 SW6       30.12F
DICKINSON      CLEAR     49  29  46 NW5       30.16R
MINOT          CLEAR     57  26  30 SE5       30.11F
BISMARCK       CLEAR     49  32  52 CALM      30.16S

SOUTHERN SASKATCHEWAN


CITY           SKY/WX    TMP DP  RH WIND       PRES   REMARKS
REGINA         MOCLDY    57  34  41 W7        30.07F
ESTEVAN        MOCLDY    54  30  40 SW6       30.07F
SWIFT CURRENT  MOCLDY    55  36  47 W9        30.11S





USA.gov is the U.S. government's official web portal to all federal, state and local government web resources and services.